This is the latest recevied weather packets stored in our database for station/object KB3FCJ-2. If no packets are shown the sender has not sent any weather packets the latest 10 day(s).
| Time | Temp. | Humidity | Pressure | Rain* | Wind** | Luminosity | Snow |
|---|---|---|---|---|---|---|---|
| 1777491073 | 15° C | 68% | 976 hPa | 0 mm | - | - | - |
| 1777490472 | 15.56° C | 69% | 976 hPa | 0 mm | - | - | - |
| 1777489872 | 15° C | 69% | 976 hPa | 0 mm | - | - | - |
| 1777489272 | 15° C | 69% | 976 hPa | 0 mm | - | - | - |
| 1777488425 | 15° C | 69% | 576.5 hPa | 0 mm | - | - | - |
| 1777487826 | 15.56° C | 69% | 576.5 hPa | 0 mm | - | - | - |
| 1777487227 | 15.56° C | 67% | 576.5 hPa | 0 mm | - | - | - |
| 1777486625 | 16.11° C | 64% | 576.5 hPa | 0 mm | - | - | - |
| 1777485789 | 16.67° C | 62% | 576.5 hPa | 0 mm | - | - | - |
| 1777485188 | 16.67° C | 61% | 576.5 hPa | 0 mm | - | - | - |
| 1777484589 | 16.67° C | 62% | 576.5 hPa | 0 mm | - | - | - |
| 1777483139 | 16.11° C | 60% | 576.5 hPa | 0 mm | - | - | - |
| 1777482540 | 16.67° C | 59% | 576.5 hPa | 0 mm | - | - | - |
| 1777481939 | 16.11° C | 60% | 576.5 hPa | 0 mm | - | - | - |
| 1777481339 | 16.11° C | 59% | 576.5 hPa | 0 mm | - | - | - |
| 1777480505 | 16.11° C | 58% | 576.5 hPa | 0 mm | - | - | - |
| 1777479904 | 16.67° C | 57% | 868.4 hPa | 0 mm | - | - | - |
| 1777479305 | 16.11° C | 57% | 868.4 hPa | 0 mm | - | - | - |
| 1777478704 | 16.11° C | 56% | 868.4 hPa | 0 mm | - | - | - |
| 1777477867 | 15.56° C | 59% | 868.4 hPa | 0 mm | - | - | - |
| 1777477268 | 15.56° C | 56% | 868.4 hPa | 0 mm | - | - | - |
| 1777476667 | 15.56° C | 56% | 868.4 hPa | 0 mm | - | - | - |
| 1777476068 | 15.56° C | 55% | 868.4 hPa | 0 mm | - | - | - |
| 1777475221 | 15° C | 56% | 868.4 hPa | 0 mm | - | - | - |
| 1777474620 | 14.44° C | 56% | 868.4 hPa | 0 mm | - | - | - |
* Rain latest hour (hover to see other rain measurements)
** Current wind speed in m/s (hover to see current wind gust speed)